Time,TemperatureF,DewpointF,PressureIn,WindDirection,WindDirectionDegrees,WindSpeedMPH,WindSpeedGustMPH,Humidity,HourlyPrecipIn,Conditions,Clouds,dailyrainin,SoftwareType,DateUTC
2013-07-26 00:01:00,65.1,55.8,30.00,NW,311,0.0,0.0,72,0.00,,,0.00,WeatherCatV1.15B25,2013-07-26 07:01:00,
2013-07-26 00:06:00,65.1,55.8,30.00,NNW,345,0.0,1.0,72,0.00,,,0.00,WeatherCatV1.15B25,2013-07-26 07:06:00,
2013-07-26 00:11:00,65.0,56.5,30.00,NNW,327,0.0,1.0,74,0.00,,,0.00,WeatherCatV1.15B25,2013-07-26 07:11:00,
2013-07-26 00:16:00,64.6,56.1,30.00,NNW,345,0.0,1.0,74,0.00,,,0.00,WeatherCatV1.15B25,2013-07-26 07:16:00,
2013-07-26 00:21:00,64.3,56.6,30.00,WNW,295,0.0,1.0,76,0.00,,,0.00,WeatherCatV1.15B25,2013-07-26 07:21:00,
2013-07-26 00:26:00,64.3,56.6,30.00,NW,309,0.0,0.0,76,0.00,,,0.00,WeatherCatV1.15B25,2013-07-26 07:26:00,
2013-07-26 00:31:00,64.3,56.6,30.00,NW,322,0.0,1.0,76,0.00,,,0.00,WeatherCatV1.15B25,2013-07-26 07:31:00,
2013-07-26 00:36:00,64.3,56.6,30.00,WNW,300,0.0,1.0,76,0.00,,,0.00,WeatherCatV1.15B25,2013-07-26 07:36:00,
2013-07-26 00:41:00,64.4,56.7,30.00,WNW,300,0.0,1.0,76,0.00,,,0.00,WeatherCatV1.15B25,2013-07-26 07:41:00,
2013-07-26 00:46:00,64.5,57.5,30.00,WNW,300,0.0,1.0,78,0.00,,,0.00,WeatherCatV1.15B25,2013-07-26 07:46:00,
2013-07-26 00:51:00,65.0,58.3,30.01,WNW,300,0.0,0.0,79,0.00,,,0.00,WeatherCatV1.15B25,2013-07-26 07:51:00,
2013-07-26 00:56:00,65.3,59.3,30.01,WNW,300,0.0,0.0,81,0.00,,,0.00,WeatherCatV1.15B25,2013-07-26 07:56:00,
2013-07-26 01:01:00,65.4,60.1,30.01,WNW,300,0.0,0.0,83,0.00,,,0.00,WeatherCatV1.15B25,2013-07-26 08:01:00,
2013-07-26 01:06:00,65.2,60.2,30.01,WNW,300,0.0,0.0,84,0.00,,,0.00,WeatherCatV1.15B25,2013-07-26 08:06:00,
2013-07-26 01:11:00,64.7,59.7,30.00,NNE,29,0.0,1.0,84,0.00,,,0.00,WeatherCatV1.15B25,2013-07-26 08:11:00,
2013-07-26 01:16:00,63.9,59.0,30.01,NNW,343,0.0,0.0,84,0.00,,,0.00,WeatherCatV1.15B25,2013-07-26 08:16:00,
2013-07-26 01:21:00,63.4,58.5,30.01,West,274,0.0,1.0,84,0.00,,,0.00,WeatherCatV1.15B25,2013-07-26 08:21:00,
2013-07-26 01:26:00,63.2,58.3,30.01,WNW,291,0.0,1.0,84,0.00,,,0.00,WeatherCatV1.15B25,2013-07-26 08:26:00,
2013-07-26 01:31:00,63.1,57.8,30.01,NW,319,0.0,1.0,83,0.00,,,0.00,WeatherCatV1.15B25,2013-07-26 08:31:00,
2013-07-26 01:36:00,63.1,57.5,30.01,NNW,348,0.0,1.0,82,0.00,,,0.00,WeatherCatV1.15B25,2013-07-26 08:36:00,
2013-07-26 01:41:00,63.3,57.4,30.01,North,349,0.0,1.0,81,0.00,,,0.00,WeatherCatV1.15B25,2013-07-26 08:41:00,
2013-07-26 01:46:00,63.2,57.3,30.01,North,349,0.0,1.0,81,0.00,,,0.00,WeatherCatV1.15B25,2013-07-26 08:46:00,
2013-07-26 01:51:00,63.0,57.1,30.01,WNW,301,0.0,1.0,81,0.00,,,0.00,WeatherCatV1.15B25,2013-07-26 08:51:00,
2013-07-26 01:56:00,62.8,56.9,30.01,NW,309,0.0,0.0,81,0.00,,,0.00,WeatherCatV1.15B25,2013-07-26 08:56:00,
2013-07-26 02:01:00,62.7,56.8,30.01,NW,326,1.0,1.0,81,0.00,,,0.00,WeatherCatV1.15B25,2013-07-26 09:01:00,
2013-07-26 02:06:00,62.5,56.2,30.01,WNW,300,0.0,1.0,80,0.00,,,0.00,WeatherCatV1.15B25,2013-07-26 09:06:00,
2013-07-26 02:11:00,62.5,56.2,30.01,WNW,297,0.0,1.0,80,0.00,,,0.00,WeatherCatV1.15B25,2013-07-26 09:11:00,
2013-07-26 02:16:00,62.5,56.2,30.01,NNW,331,0.0,1.0,80,0.00,,,0.00,WeatherCatV1.15B25,2013-07-26 09:16:00,
2013-07-26 02:21:00,62.3,55.7,30.02,WNW,300,0.0,1.0,79,0.00,,,0.00,WeatherCatV1.15B25,2013-07-26 09:21:00,
2013-07-26 02:26:00,62.1,54.8,30.01,WNW,285,0.0,1.0,77,0.00,,,0.00,WeatherCatV1.15B25,2013-07-26 09:26:00,
2013-07-26 02:31:00,62.2,54.9,30.02,NW,307,0.0,1.0,77,0.00,,,0.00,WeatherCatV1.15B25,2013-07-26 09:31:00,
2013-07-26 02:36:00,62.1,54.8,30.02,WNW,288,0.0,1.0,77,0.00,,,0.00,WeatherCatV1.15B25,2013-07-26 09:36:00,
2013-07-26 02:41:00,62.0,54.7,30.02,NW,315,0.0,1.0,77,0.00,,,0.00,WeatherCatV1.15B25,2013-07-26 09:41:00,
2013-07-26 02:46:00,61.8,54.5,30.02,WNW,302,0.0,1.0,77,0.00,,,0.00,WeatherCatV1.15B25,2013-07-26 09:46:00,
2013-07-26 02:51:00,61.8,54.5,30.02,North,349,0.0,1.0,77,0.00,,,0.00,WeatherCatV1.15B25,2013-07-26 09:51:00,
2013-07-26 02:56:00,61.7,54.1,30.02,NNW,347,0.0,0.0,76,0.00,,,0.00,WeatherCatV1.15B25,2013-07-26 09:56:00,
2013-07-26 03:01:00,61.5,54.2,30.02,NNW,347,0.0,1.0,77,0.00,,,0.00,WeatherCatV1.15B25,2013-07-26 10:01:00,
2013-07-26 03:06:00,61.3,53.7,30.02,NNW,346,0.0,1.0,76,0.00,,,0.00,WeatherCatV1.15B25,2013-07-26 10:06:00,
2013-07-26 03:11:00,61.0,53.7,30.02,North,354,0.0,1.0,77,0.00,,,0.00,WeatherCatV1.15B25,2013-07-26 10:11:00,
2013-07-26 03:16:00,61.0,53.4,30.02,North,352,0.0,1.0,76,0.00,,,0.00,WeatherCatV1.15B25,2013-07-26 10:16:00,
2013-07-26 03:21:00,60.8,53.2,30.02,North,11,0.0,1.0,76,0.00,,,0.00,WeatherCatV1.15B25,2013-07-26 10:21:00,
2013-07-26 03:26:00,60.6,53.3,30.02,WNW,291,0.0,0.0,77,0.00,,,0.00,WeatherCatV1.15B25,2013-07-26 10:26:00,
2013-07-26 03:31:00,60.3,53.1,30.02,WNW,290,0.0,1.0,77,0.00,,,0.00,WeatherCatV1.15B25,2013-07-26 10:31:00,
2013-07-26 03:36:00,60.2,53.3,30.02,NW,304,0.0,1.0,78,0.00,,,0.00,WeatherCatV1.15B25,2013-07-26 10:36:00,
2013-07-26 03:41:00,60.3,53.8,30.02,NW,318,0.0,0.0,79,0.00,,,0.00,WeatherCatV1.15B25,2013-07-26 10:41:00,
2013-07-26 03:46:00,60.4,54.2,30.02,NW,311,0.0,0.0,80,0.00,,,0.00,WeatherCatV1.15B25,2013-07-26 10:46:00,
2013-07-26 03:51:00,60.7,54.8,30.03,NNW,332,0.0,1.0,81,0.00,,,0.00,WeatherCatV1.15B25,2013-07-26 10:51:00,
2013-07-26 03:56:00,60.5,54.6,30.03,North,6,0.0,1.0,81,0.00,,,0.00,WeatherCatV1.15B25,2013-07-26 10:56:00,
2013-07-26 04:01:00,60.4,54.9,30.03,NNW,337,0.0,0.0,82,0.00,,,0.00,WeatherCatV1.15B25,2013-07-26 11:01:00,
2013-07-26 04:06:00,60.3,54.4,30.03,NW,316,0.0,0.0,81,0.00,,,0.00,WeatherCatV1.15B25,2013-07-26 11:06:00,
2013-07-26 04:11:00,60.3,54.8,30.03,NW,314,0.0,0.0,82,0.00,,,0.00,WeatherCatV1.15B25,2013-07-26 11:11:00,
2013-07-26 04:16:00,60.3,54.4,30.03,NW,307,0.0,1.0,81,0.00,,,0.00,WeatherCatV1.15B25,2013-07-26 11:16:00,
2013-07-26 04:21:00,60.3,54.4,30.03,WNW,297,0.0,1.0,81,0.00,,,0.00,WeatherCatV1.15B25,2013-07-26 11:21:00,
2013-07-26 04:26:00,60.3,54.4,30.03,NNW,327,0.0,0.0,81,0.00,,,0.00,WeatherCatV1.15B25,2013-07-26 11:26:00,
2013-07-26 04:31:00,60.2,54.3,30.03,NNW,327,0.0,1.0,81,0.00,,,0.00,WeatherCatV1.15B25,2013-07-26 11:31:00,
2013-07-26 04:36:00,60.2,54.3,30.03,NNW,342,0.0,0.0,81,0.00,,,0.00,WeatherCatV1.15B25,2013-07-26 11:36:00,
2013-07-26 04:41:00,60.1,54.2,30.03,NNW,341,0.0,1.0,81,0.00,,,0.00,WeatherCatV1.15B25,2013-07-26 11:41:00,
2013-07-26 04:46:00,60.1,54.6,30.03,NNW,342,0.0,0.0,82,0.00,,,0.00,WeatherCatV1.15B25,2013-07-26 11:46:00,
2013-07-26 04:51:00,60.1,54.6,30.04,NNW,341,0.0,0.0,82,0.00,,,0.00,WeatherCatV1.15B25,2013-07-26 11:51:00,
2013-07-26 04:56:00,60.0,54.5,30.04,NNW,342,0.0,0.0,82,0.00,,,0.00,WeatherCatV1.15B25,2013-07-26 11:56:00,
2013-07-26 05:01:00,60.1,54.2,30.04,NNW,341,0.0,0.0,81,0.00,,,0.00,WeatherCatV1.15B25,2013-07-26 12:01:00,
2013-07-26 05:06:00,59.9,54.4,30.04,NNW,341,0.0,0.0,82,0.00,,,0.00,WeatherCatV1.15B25,2013-07-26 12:06:00,
2013-07-26 05:11:00,59.7,53.9,30.04,NNW,341,0.0,0.0,81,0.00,,,0.00,WeatherCatV1.15B25,2013-07-26 12:11:00,
2013-07-26 05:16:00,59.4,53.9,30.04,NNW,342,0.0,0.0,82,0.00,,,0.00,WeatherCatV1.15B25,2013-07-26 12:16:00,
2013-07-26 05:21:00,59.1,53.6,30.04,NW,305,0.0,1.0,82,0.00,,,0.00,WeatherCatV1.15B25,2013-07-26 12:21:00,
2013-07-26 05:26:00,58.9,53.4,30.04,NW,305,0.0,0.0,82,0.00,,,0.00,WeatherCatV1.15B25,2013-07-26 12:26:00,
2013-07-26 05:31:00,58.8,53.6,30.04,NW,304,0.0,0.0,83,0.00,,,0.00,WeatherCatV1.15B25,2013-07-26 12:31:00,
2013-07-26 05:36:00,58.7,53.9,30.04,NW,307,0.0,0.0,84,0.00,,,0.00,WeatherCatV1.15B25,2013-07-26 12:36:00,
2013-07-26 05:41:00,58.6,54.1,30.04,NW,310,0.0,1.0,85,0.00,,,0.00,WeatherCatV1.15B25,2013-07-26 12:41:00,
2013-07-26 05:46:00,58.4,54.2,30.04,NW,322,0.0,0.0,86,0.00,,,0.00,WeatherCatV1.15B25,2013-07-26 12:46:00,
2013-07-26 05:51:00,58.4,54.2,30.04,NW,321,0.0,0.0,86,0.00,,,0.00,WeatherCatV1.15B25,2013-07-26 12:51:00,
2013-07-26 05:56:00,58.4,54.2,30.04,NW,322,0.0,0.0,86,0.00,,,0.00,WeatherCatV1.15B25,2013-07-26 12:56:00,
2013-07-26 06:01:00,58.4,54.5,30.04,NW,322,0.0,0.0,87,0.00,,,0.00,WeatherCatV1.15B25,2013-07-26 13:01:00,
2013-07-26 06:06:00,58.4,54.5,30.05,NW,322,0.0,0.0,87,0.00,,,0.00,WeatherCatV1.15B25,2013-07-26 13:06:00,
2013-07-26 06:11:00,58.5,54.6,30.05,NW,322,0.0,0.0,87,0.00,,,0.00,WeatherCatV1.15B25,2013-07-26 13:11:00,
2013-07-26 06:16:00,58.7,54.5,30.05,NNW,335,0.0,1.0,86,0.00,,,0.00,WeatherCatV1.15B25,2013-07-26 13:16:00,
2013-07-26 06:21:00,58.8,54.9,30.05,NNE,33,0.0,1.0,87,0.00,,,0.00,WeatherCatV1.15B25,2013-07-26 13:21:00,
2013-07-26 06:26:00,59.0,55.1,30.05,NNE,32,0.0,0.0,87,0.00,,,0.00,WeatherCatV1.15B25,2013-07-26 13:26:00,
2013-07-26 06:31:00,59.1,54.9,30.05,NNW,340,0.0,0.0,86,0.00,,,0.00,WeatherCatV1.15B25,2013-07-26 13:31:00,
2013-07-26 06:36:00,59.3,55.1,30.05,NW,322,0.0,0.0,86,0.00,,,0.00,WeatherCatV1.15B25,2013-07-26 13:36:00,
2013-07-26 06:41:00,59.7,55.5,30.05,NW,322,0.0,0.0,86,0.00,,,0.00,WeatherCatV1.15B25,2013-07-26 13:41:00,
2013-07-26 06:46:00,60.4,55.9,30.05,NNW,330,0.0,0.0,85,0.00,,,0.00,WeatherCatV1.15B25,2013-07-26 13:46:00,
2013-07-26 06:51:00,61.1,56.2,30.05,NNW,330,0.0,0.0,84,0.00,,,0.00,WeatherCatV1.15B25,2013-07-26 13:51:00,
2013-07-26 06:56:00,61.6,56.4,30.05,NNW,330,0.0,0.0,83,0.00,,,0.00,WeatherCatV1.15B25,2013-07-26 13:56:00,
2013-07-26 07:01:00,62.4,57.5,30.06,NNW,330,0.0,0.0,84,0.00,,,0.00,WeatherCatV1.15B25,2013-07-26 14:01:00,
2013-07-26 07:06:00,63.7,57.4,30.06,NNW,330,0.0,0.0,80,0.00,,,0.00,WeatherCatV1.15B25,2013-07-26 14:06:00,
2013-07-26 07:11:00,64.3,56.9,30.06,NNW,330,0.0,0.0,77,0.00,,,0.00,WeatherCatV1.15B25,2013-07-26 14:11:00,
2013-07-26 07:16:00,64.9,57.1,30.06,NNW,330,0.0,1.0,76,0.00,,,0.00,WeatherCatV1.15B25,2013-07-26 14:16:00,
2013-07-26 07:21:00,64.3,56.9,30.06,SW,219,0.0,1.0,77,0.00,,,0.00,WeatherCatV1.15B25,2013-07-26 14:21:00,
2013-07-26 07:26:00,64.1,56.7,30.06,SW,221,0.0,0.0,77,0.00,,,0.00,WeatherCatV1.15B25,2013-07-26 14:26:00,
2013-07-26 07:31:00,64.6,56.9,30.06,SW,219,0.0,0.0,76,0.00,,,0.00,WeatherCatV1.15B25,2013-07-26 14:31:00,
2013-07-26 07:36:00,65.0,56.5,30.06,NW,311,0.0,1.0,74,0.00,,,0.00,WeatherCatV1.15B25,2013-07-26 14:36:00,
2013-07-26 07:41:00,65.0,56.1,30.06,SW,226,0.0,2.0,73,0.00,,,0.00,WeatherCatV1.15B25,2013-07-26 14:41:00,
2013-07-26 07:46:00,64.8,55.6,30.06,NW,322,3.0,6.0,72,0.00,,,0.00,WeatherCatV1.15B25,2013-07-26 14:46:00,
2013-07-26 07:51:00,64.7,55.8,30.06,NW,314,1.0,2.0,73,0.00,,,0.00,WeatherCatV1.15B25,2013-07-26 14:51:00,
2013-07-26 07:56:00,64.9,55.7,30.06,WNW,302,2.0,5.0,72,0.00,,,0.00,WeatherCatV1.15B25,2013-07-26 14:56:00,
2013-07-26 08:01:00,65.1,55.5,30.07,WSW,243,1.0,3.0,71,0.00,,,0.00,WeatherCatV1.15B25,2013-07-26 15:01:00,
2013-07-26 08:06:00,65.6,55.9,30.07,NW,315,2.0,4.0,71,0.00,,,0.00,WeatherCatV1.15B25,2013-07-26 15:06:00,
2013-07-26 08:11:00,65.9,55.8,30.07,NNW,343,3.0,6.0,70,0.00,,,0.00,WeatherCatV1.15B25,2013-07-26 15:11:00,
2013-07-26 08:16:00,65.7,55.6,30.07,West,274,1.0,5.0,70,0.00,,,0.00,WeatherCatV1.15B25,2013-07-26 15:16:00,
2013-07-26 08:21:00,66.0,55.9,30.07,SW,221,2.0,5.0,70,0.00,,,0.00,WeatherCatV1.15B25,2013-07-26 15:21:00,
2013-07-26 08:26:00,66.1,55.6,30.07,WNW,297,4.0,5.0,69,0.00,,,0.00,WeatherCatV1.15B25,2013-07-26 15:26:00,
2013-07-26 08:31:00,66.0,55.9,30.07,WSW,243,6.0,7.0,70,0.00,,,0.00,WeatherCatV1.15B25,2013-07-26 15:31:00,
2013-07-26 08:36:00,65.8,56.5,30.07,SSE,149,4.0,4.0,72,0.00,,,0.00,WeatherCatV1.15B25,2013-07-26 15:36:00,
2013-07-26 08:41:00,65.7,56.0,30.07,SSW,210,3.0,6.0,71,0.00,,,0.00,WeatherCatV1.15B25,2013-07-26 15:41:00,
2013-07-26 08:46:00,66.0,56.3,30.07,WSW,240,5.0,8.0,71,0.00,,,0.00,WeatherCatV1.15B25,2013-07-26 15:46:00,
2013-07-26 08:51:00,66.0,56.7,30.07,SSE,160,4.0,8.0,72,0.00,,,0.00,WeatherCatV1.15B25,2013-07-26 15:51:00,
2013-07-26 08:56:00,66.0,56.3,30.07,SSW,210,4.0,8.0,71,0.00,,,0.00,WeatherCatV1.15B25,2013-07-26 15:56:00,
2013-07-26 09:01:00,66.2,56.5,30.07,WSW,238,5.0,6.0,71,0.00,,,0.00,WeatherCatV1.15B25,2013-07-26 16:01:00,
2013-07-26 09:06:00,65.9,56.2,30.07,SW,225,4.0,8.0,71,0.00,,,0.00,WeatherCatV1.15B25,2013-07-26 16:06:00,
2013-07-26 09:11:00,65.9,56.2,30.07,SW,215,4.0,6.0,71,0.00,,,0.00,WeatherCatV1.15B25,2013-07-26 16:11:00,
2013-07-26 09:16:00,66.0,56.3,30.07,WSW,238,4.0,5.0,71,0.00,,,0.00,WeatherCatV1.15B25,2013-07-26 16:16:00,
2013-07-26 09:21:00,66.1,56.4,30.07,SW,228,8.0,9.0,71,0.00,,,0.00,WeatherCatV1.15B25,2013-07-26 16:21:00,
2013-07-26 09:26:00,66.2,56.5,30.07,WSW,238,5.0,5.0,71,0.00,,,0.00,WeatherCatV1.15B25,2013-07-26 16:26:00,
2013-07-26 09:31:00,66.2,56.5,30.07,WSW,250,2.0,8.0,71,0.00,,,0.00,WeatherCatV1.15B25,2013-07-26 16:31:00,
2013-07-26 09:36:00,66.1,56.4,30.07,WSW,252,6.0,9.0,71,0.00,,,0.00,WeatherCatV1.15B25,2013-07-26 16:36:00,
2013-07-26 09:41:00,66.5,56.8,30.07,SW,217,2.0,9.0,71,0.00,,,0.00,WeatherCatV1.15B25,2013-07-26 16:41:00,
2013-07-26 09:46:00,66.6,56.5,30.07,WSW,252,6.0,9.0,70,0.00,,,0.00,WeatherCatV1.15B25,2013-07-26 16:46:00,
2013-07-26 09:51:00,66.5,56.8,30.07,SSW,204,5.0,8.0,71,0.00,,,0.00,WeatherCatV1.15B25,2013-07-26 16:51:00,
2013-07-26 09:56:00,66.6,56.9,30.07,SSE,163,6.0,7.0,71,0.00,,,0.00,WeatherCatV1.15B25,2013-07-26 16:56:00,
2013-07-26 10:01:00,67.1,57.4,30.07,SW,217,4.0,8.0,71,0.00,,,0.00,WeatherCatV1.15B25,2013-07-26 17:01:00,
2013-07-26 10:06:00,67.5,57.4,30.07,SSW,193,2.0,6.0,70,0.00,,,0.00,WeatherCatV1.15B25,2013-07-26 17:06:00,
2013-07-26 10:11:00,67.2,57.1,30.07,SSW,205,6.0,8.0,70,0.00,,,0.00,WeatherCatV1.15B25,2013-07-26 17:11:00,
2013-07-26 10:16:00,66.7,57.0,30.07,SW,224,5.0,6.0,71,0.00,,,0.00,WeatherCatV1.15B25,2013-07-26 17:16:00,
2013-07-26 10:21:00,66.8,56.7,30.07,West,269,4.0,10.0,70,0.00,,,0.00,WeatherCatV1.15B25,2013-07-26 17:21:00,
2013-07-26 10:26:00,66.6,56.5,30.07,WSW,244,7.0,8.0,70,0.00,,,0.00,WeatherCatV1.15B25,2013-07-26 17:26:00,
2013-07-26 10:31:00,66.8,56.3,30.07,SW,231,5.0,10.0,69,0.00,,,0.00,WeatherCatV1.15B25,2013-07-26 17:31:00,
2013-07-26 10:36:00,67.5,57.4,30.07,SSE,158,6.0,7.0,70,0.00,,,0.00,WeatherCatV1.15B25,2013-07-26 17:36:00,
2013-07-26 10:41:00,67.4,57.3,30.07,South,188,4.0,8.0,70,0.00,,,0.00,WeatherCatV1.15B25,2013-07-26 17:41:00,
2013-07-26 10:46:00,66.8,56.7,30.07,West,267,5.0,9.0,70,0.00,,,0.00,WeatherCatV1.15B25,2013-07-26 17:46:00,
2013-07-26 10:51:00,67.1,57.4,30.07,SSW,205,4.0,9.0,71,0.00,,,0.00,WeatherCatV1.15B25,2013-07-26 17:51:00,
2013-07-26 10:53:00,67.0,57.7,30.07,SSW,194,4.0,6.0,72,0.00,,,0.00,WeatherCatV1.15B25,2013-07-26 17:53:00,
2013-07-26 10:58:00,67.0,57.7,30.07,SSW,213,7.0,8.0,72,0.00,,,0.00,WeatherCatV1.15B25,2013-07-26 17:58:00,
2013-07-26 11:03:00,67.1,57.4,30.07,SW,222,7.0,9.0,71,0.00,,,0.00,WeatherCatV1.15B25,2013-07-26 18:03:00,
2013-07-26 11:06:00,67.1,57.8,30.07,SW,232,8.0,8.0,72,0.00,,,0.00,WeatherCatV1.15B25,2013-07-26 18:06:00,
2013-07-26 11:11:00,66.8,57.1,30.07,WSW,246,5.0,11.0,71,0.00,,,0.00,WeatherCatV1.15B25,2013-07-26 18:11:00,
2013-07-26 11:16:00,66.5,56.8,30.07,WSW,238,7.0,8.0,71,0.00,,,0.00,WeatherCatV1.15B25,2013-07-26 18:16:00,
2013-07-26 11:21:00,66.7,57.0,30.06,SW,236,8.0,10.0,71,0.00,,,0.00,WeatherCatV1.15B25,2013-07-26 18:21:00,
2013-07-26 11:26:00,67.2,57.9,30.07,SSE,156,9.0,9.0,72,0.00,,,0.00,WeatherCatV1.15B25,2013-07-26 18:26:00,
2013-07-26 11:31:00,67.4,57.7,30.07,SW,221,5.0,9.0,71,0.00,,,0.00,WeatherCatV1.15B25,2013-07-26 18:31:00,
2013-07-26 11:36:00,67.6,57.9,30.07,SW,215,4.0,7.0,71,0.00,,,0.00,WeatherCatV1.15B25,2013-07-26 18:36:00,
2013-07-26 11:41:00,67.7,57.9,30.07,SW,215,6.0,11.0,71,0.00,,,0.00,WeatherCatV1.15B25,2013-07-26 18:41:00,
2013-07-26 11:46:00,68.3,58.1,30.07,SW,215,7.0,7.0,70,0.00,,,0.00,WeatherCatV1.15B25,2013-07-26 18:46:00,
2013-07-26 11:51:00,69.0,58.4,30.07,WSW,246,5.0,6.0,69,0.00,,,0.00,WeatherCatV1.15B25,2013-07-26 18:51:00,
2013-07-26 11:56:00,69.3,57.4,30.07,SW,231,5.0,6.0,66,0.00,,,0.00,WeatherCatV1.15B25,2013-07-26 18:56:00,
2013-07-26 12:01:00,69.4,57.5,30.07,South,184,5.0,6.0,66,0.00,,,0.00,WeatherCatV1.15B25,2013-07-26 19:01:00,
2013-07-26 12:06:00,69.4,57.5,30.07,SSE,163,2.0,6.0,66,0.00,,,0.00,WeatherCatV1.15B25,2013-07-26 19:06:00,
2013-07-26 12:11:00,69.7,57.8,30.06,SW,221,3.0,6.0,66,0.00,,,0.00,WeatherCatV1.15B25,2013-07-26 19:11:00,
2013-07-26 12:16:00,69.7,57.8,30.06,SW,229,6.0,6.0,66,0.00,,,0.00,WeatherCatV1.15B25,2013-07-26 19:16:00,
2013-07-26 12:21:00,69.7,57.8,30.06,SSW,197,2.0,6.0,66,0.00,,,0.00,WeatherCatV1.15B25,2013-07-26 19:21:00,
2013-07-26 12:26:00,70.3,57.5,30.06,SSW,211,3.0,6.0,64,0.00,,,0.00,WeatherCatV1.15B25,2013-07-26 19:26:00,
2013-07-26 12:31:00,70.4,58.1,30.06,SSW,208,3.0,6.0,65,0.00,,,0.00,WeatherCatV1.15B25,2013-07-26 19:31:00,
2013-07-26 12:36:00,70.9,58.1,30.06,South,184,3.0,7.0,64,0.00,,,0.00,WeatherCatV1.15B25,2013-07-26 19:36:00,
2013-07-26 12:41:00,70.6,57.4,30.06,WNW,286,3.0,7.0,63,0.00,,,0.00,WeatherCatV1.15B25,2013-07-26 19:41:00,
2013-07-26 12:46:00,70.8,58.0,30.06,SW,229,3.0,5.0,64,0.00,,,0.00,WeatherCatV1.15B25,2013-07-26 19:46:00,
2013-07-26 12:51:00,71.0,58.2,30.06,SW,228,6.0,7.0,64,0.00,,,0.00,WeatherCatV1.15B25,2013-07-26 19:51:00,
2013-07-26 12:56:00,71.1,58.3,30.06,SSW,205,5.0,5.0,64,0.00,,,0.00,WeatherCatV1.15B25,2013-07-26 19:56:00,
2013-07-26 13:01:00,70.6,58.2,30.06,SW,231,5.0,6.0,65,0.00,,,0.00,WeatherCatV1.15B25,2013-07-26 20:01:00,
2013-07-26 13:06:00,70.5,58.2,30.06,SW,228,5.0,6.0,65,0.00,,,0.00,WeatherCatV1.15B25,2013-07-26 20:06:00,
2013-07-26 13:11:00,70.7,57.5,30.06,WSW,249,4.0,5.0,63,0.00,,,0.00,WeatherCatV1.15B25,2013-07-26 20:11:00,
2013-07-26 13:16:00,70.8,58.0,30.06,WSW,243,4.0,6.0,64,0.00,,,0.00,WeatherCatV1.15B25,2013-07-26 20:16:00,
2013-07-26 13:21:00,71.0,58.2,30.06,SW,225,5.0,5.0,64,0.00,,,0.00,WeatherCatV1.15B25,2013-07-26 20:21:00,
2013-07-26 13:26:00,71.2,57.9,30.06,SW,218,4.0,5.0,63,0.00,,,0.00,WeatherCatV1.15B25,2013-07-26 20:26:00,
2013-07-26 13:31:00,71.6,57.9,30.06,South,179,4.0,6.0,62,0.00,,,0.00,WeatherCatV1.15B25,2013-07-26 20:31:00,
2013-07-26 13:36:00,71.4,58.1,30.06,SW,233,2.0,5.0,63,0.00,,,0.00,WeatherCatV1.15B25,2013-07-26 20:36:00,
2013-07-26 13:41:00,71.9,58.6,30.06,WSW,243,3.0,8.0,63,0.00,,,0.00,WeatherCatV1.15B25,2013-07-26 20:41:00,
2013-07-26 13:46:00,72.0,58.7,30.06,SSW,193,3.0,8.0,63,0.00,,,0.00,WeatherCatV1.15B25,2013-07-26 20:46:00,
2013-07-26 13:51:00,72.1,58.3,30.06,SW,225,6.0,6.0,62,0.00,,,0.00,WeatherCatV1.15B25,2013-07-26 20:51:00,
2013-07-26 13:56:00,72.4,58.2,30.06,WSW,243,2.0,4.0,61,0.00,,,0.00,WeatherCatV1.15B25,2013-07-26 20:56:00,
2013-07-26 14:01:00,72.7,58.5,30.06,SW,231,6.0,6.0,61,0.00,,,0.00,WeatherCatV1.15B25,2013-07-26 21:01:00,
2013-07-26 14:06:00,72.3,57.6,30.06,South,182,5.0,8.0,60,0.00,,,0.00,WeatherCatV1.15B25,2013-07-26 21:06:00,
2013-07-26 14:11:00,72.4,58.2,30.06,SSW,208,4.0,7.0,61,0.00,,,0.00,WeatherCatV1.15B25,2013-07-26 21:11:00,
2013-07-26 14:16:00,72.7,58.0,30.05,SSW,194,5.0,5.0,60,0.00,,,0.00,WeatherCatV1.15B25,2013-07-26 21:16:00,
2013-07-26 14:21:00,73.1,57.4,30.05,SSW,194,4.0,5.0,58,0.00,,,0.00,WeatherCatV1.15B25,2013-07-26 21:21:00,
2013-07-26 14:26:00,73.2,57.0,30.06,SW,214,3.0,6.0,57,0.00,,,0.00,WeatherCatV1.15B25,2013-07-26 21:26:00,
2013-07-26 14:31:00,73.7,57.5,30.05,West,260,2.0,5.0,57,0.00,,,0.00,WeatherCatV1.15B25,2013-07-26 21:31:00,
2013-07-26 14:36:00,73.5,57.3,30.05,South,187,4.0,7.0,57,0.00,,,0.00,WeatherCatV1.15B25,2013-07-26 21:36:00,
2013-07-26 14:41:00,73.5,57.8,30.05,SE,139,4.0,7.0,58,0.00,,,0.00,WeatherCatV1.15B25,2013-07-26 21:41:00,
2013-07-26 14:46:00,74.1,56.9,30.05,SSE,152,7.0,8.0,55,0.00,,,0.00,WeatherCatV1.15B25,2013-07-26 21:46:00,
2013-07-26 14:51:00,73.1,56.9,30.05,SW,229,6.0,9.0,57,0.00,,,0.00,WeatherCatV1.15B25,2013-07-26 21:51:00,
2013-07-26 14:56:00,73.4,58.2,30.05,SW,227,3.0,6.0,59,0.00,,,0.00,WeatherCatV1.15B25,2013-07-26 21:56:00,
2013-07-26 15:01:00,73.9,57.2,30.05,SW,231,4.0,8.0,56,0.00,,,0.00,WeatherCatV1.15B25,2013-07-26 22:01:00,
2013-07-26 15:06:00,74.2,57.0,30.05,SW,224,7.0,8.0,55,0.00,,,0.00,WeatherCatV1.15B25,2013-07-26 22:06:00,
2013-07-26 15:11:00,74.3,56.6,30.05,WSW,257,4.0,12.0,54,0.00,,,0.00,WeatherCatV1.15B25,2013-07-26 22:11:00,
2013-07-26 15:16:00,74.3,54.4,30.05,SW,224,4.0,10.0,50,0.00,,,0.00,WeatherCatV1.15B25,2013-07-26 22:16:00,
2013-07-26 15:21:00,74.1,54.3,30.05,SSW,194,6.0,13.0,50,0.00,,,0.00,WeatherCatV1.15B25,2013-07-26 22:21:00,
2013-07-26 15:26:00,74.1,56.4,30.04,WSW,253,8.0,10.0,54,0.00,,,0.00,WeatherCatV1.15B25,2013-07-26 22:26:00,
2013-07-26 15:31:00,73.9,57.7,30.04,West,259,10.0,11.0,57,0.00,,,0.00,WeatherCatV1.15B25,2013-07-26 22:31:00,
2013-07-26 15:36:00,73.3,55.6,30.04,SW,224,8.0,10.0,54,0.00,,,0.00,WeatherCatV1.15B25,2013-07-26 22:36:00,
2013-07-26 15:41:00,72.6,57.0,30.04,SSW,211,7.0,13.0,58,0.00,,,0.00,WeatherCatV1.15B25,2013-07-26 22:41:00,
2013-07-26 15:46:00,71.8,57.2,30.04,SW,232,8.0,11.0,60,0.00,,,0.00,WeatherCatV1.15B25,2013-07-26 22:46:00,
2013-07-26 15:51:00,71.9,57.2,30.04,South,186,7.0,11.0,60,0.00,,,0.00,WeatherCatV1.15B25,2013-07-26 22:51:00,
2013-07-26 15:56:00,72.3,58.5,30.03,WSW,249,7.0,9.0,62,0.00,,,0.00,WeatherCatV1.15B25,2013-07-26 22:56:00,
2013-07-26 16:01:00,72.2,59.3,30.04,WSW,257,7.0,9.0,64,0.00,,,0.00,WeatherCatV1.15B25,2013-07-26 23:01:00,
2013-07-26 16:06:00,72.0,57.8,30.03,SW,215,8.0,9.0,61,0.00,,,0.00,WeatherCatV1.15B25,2013-07-26 23:06:00,
2013-07-26 16:11:00,71.5,57.8,30.03,WSW,248,8.0,12.0,62,0.00,,,0.00,WeatherCatV1.15B25,2013-07-26 23:11:00,
2013-07-26 16:16:00,71.6,59.2,30.03,SSW,193,7.0,9.0,65,0.00,,,0.00,WeatherCatV1.15B25,2013-07-26 23:16:00,
2013-07-26 16:21:00,72.3,59.4,30.03,SSW,203,7.0,8.0,64,0.00,,,0.00,WeatherCatV1.15B25,2013-07-26 23:21:00,
2013-07-26 16:26:00,72.7,59.8,30.02,SW,224,3.0,8.0,64,0.00,,,0.00,WeatherCatV1.15B25,2013-07-26 23:26:00,
2013-07-26 16:31:00,73.2,57.5,30.02,SW,224,10.0,10.0,58,0.00,,,0.00,WeatherCatV1.15B25,2013-07-26 23:31:00,
2013-07-26 16:36:00,73.3,55.6,30.02,WSW,238,6.0,13.0,54,0.00,,,0.00,WeatherCatV1.15B25,2013-07-26 23:36:00,
2013-07-26 16:41:00,74.1,55.9,30.02,WSW,245,6.0,10.0,53,0.00,,,0.00,WeatherCatV1.15B25,2013-07-26 23:41:00,
2013-07-26 16:46:00,74.6,56.3,30.02,SW,236,6.0,10.0,53,0.00,,,0.00,WeatherCatV1.15B25,2013-07-26 23:46:00,
2013-07-26 16:51:00,75.2,54.7,30.02,SW,232,7.0,9.0,49,0.00,,,0.00,WeatherCatV1.15B25,2013-07-26 23:51:00,
2013-07-26 16:56:00,75.7,53.4,30.02,SSW,203,8.0,8.0,46,0.00,,,0.00,WeatherCatV1.15B25,2013-07-26 23:56:00,
2013-07-26 17:01:00,76.1,52.0,30.02,WSW,238,4.0,8.0,43,0.00,,,0.00,WeatherCatV1.15B25,2013-07-27 00:01:00,
2013-07-26 17:06:00,76.7,51.9,30.02,West,269,10.0,10.0,42,0.00,,,0.00,WeatherCatV1.15B25,2013-07-27 00:06:00,
2013-07-26 17:11:00,77.6,50.7,30.02,NNW,328,2.0,7.0,39,0.00,,,0.00,WeatherCatV1.15B25,2013-07-27 00:11:00,
2013-07-26 17:16:00,78.5,51.5,30.02,WSW,238,4.0,5.0,39,0.00,,,0.00,WeatherCatV1.15B25,2013-07-27 00:16:00,
2013-07-26 17:21:00,79.0,51.9,30.01,WSW,252,4.0,7.0,39,0.00,,,0.00,WeatherCatV1.15B25,2013-07-27 00:21:00,
2013-07-26 17:26:00,78.4,51.4,30.01,WNW,294,3.0,6.0,39,0.00,,,0.00,WeatherCatV1.15B25,2013-07-27 00:26:00,
2013-07-26 17:31:00,78.1,51.1,30.01,WNW,296,7.0,8.0,39,0.00,,,0.00,WeatherCatV1.15B25,2013-07-27 00:31:00,
2013-07-26 17:36:00,77.8,52.2,30.01,North,356,4.0,10.0,41,0.00,,,0.00,WeatherCatV1.15B25,2013-07-27 00:36:00,
2013-07-26 17:41:00,77.8,52.8,30.01,West,262,2.0,6.0,42,0.00,,,0.00,WeatherCatV1.15B25,2013-07-27 00:41:00,
2013-07-26 17:46:00,77.2,52.9,30.01,West,269,3.0,9.0,43,0.00,,,0.00,WeatherCatV1.15B25,2013-07-27 00:46:00,
2013-07-26 17:51:00,76.0,53.1,30.01,WSW,240,9.0,12.0,45,0.00,,,0.00,WeatherCatV1.15B25,2013-07-27 00:51:00,
2013-07-26 17:56:00,75.2,53.6,30.01,NW,325,4.0,7.0,47,0.00,,,0.00,WeatherCatV1.15B25,2013-07-27 00:56:00,
2013-07-26 18:01:00,75.1,54.1,30.01,West,271,6.0,8.0,48,0.00,,,0.00,WeatherCatV1.15B25,2013-07-27 01:01:00,
2013-07-26 18:06:00,74.7,54.8,30.01,WSW,249,2.0,9.0,50,0.00,,,0.00,WeatherCatV1.15B25,2013-07-27 01:06:00,
2013-07-26 18:11:00,74.5,55.2,30.01,West,281,3.0,8.0,51,0.00,,,0.00,WeatherCatV1.15B25,2013-07-27 01:11:00,
2013-07-26 18:16:00,74.6,56.3,30.01,WSW,256,5.0,5.0,53,0.00,,,0.00,WeatherCatV1.15B25,2013-07-27 01:16:00,
2013-07-26 18:21:00,74.9,55.5,30.01,NW,318,2.0,5.0,51,0.00,,,0.00,WeatherCatV1.15B25,2013-07-27 01:21:00,
2013-07-26 18:26:00,74.9,56.1,30.01,NW,309,5.0,6.0,52,0.00,,,0.00,WeatherCatV1.15B25,2013-07-27 01:26:00,
2013-07-26 18:31:00,74.6,56.3,30.00,NW,321,5.0,5.0,53,0.00,,,0.00,WeatherCatV1.15B25,2013-07-27 01:31:00,
2013-07-26 18:36:00,74.5,56.7,30.00,WSW,239,3.0,6.0,54,0.00,,,0.00,WeatherCatV1.15B25,2013-07-27 01:36:00,
2013-07-26 18:41:00,74.8,56.5,30.00,WNW,290,3.0,6.0,53,0.00,,,0.00,WeatherCatV1.15B25,2013-07-27 01:41:00,
2013-07-26 18:46:00,75.1,52.9,30.00,WNW,290,6.0,10.0,46,0.00,,,0.00,WeatherCatV1.15B25,2013-07-27 01:46:00,
2013-07-26 18:51:00,75.0,51.6,30.00,WNW,287,6.0,6.0,44,0.00,,,0.00,WeatherCatV1.15B25,2013-07-27 01:51:00,
2013-07-26 18:56:00,75.2,49.9,30.00,WSW,239,3.0,10.0,41,0.00,,,0.00,WeatherCatV1.15B25,2013-07-27 01:56:00,
2013-07-26 19:01:00,75.4,50.0,30.01,WNW,291,2.0,6.0,41,0.00,,,0.00,WeatherCatV1.15B25,2013-07-27 02:01:00,
2013-07-26 19:06:00,75.4,50.0,30.00,NNW,338,4.0,8.0,41,0.00,,,0.00,WeatherCatV1.15B25,2013-07-27 02:06:00,
2013-07-26 19:11:00,75.6,50.9,30.00,SW,235,4.0,8.0,42,0.00,,,0.00,WeatherCatV1.15B25,2013-07-27 02:11:00,
2013-07-26 19:16:00,75.3,51.9,30.00,WSW,240,3.0,6.0,44,0.00,,,0.00,WeatherCatV1.15B25,2013-07-27 02:16:00,
2013-07-26 19:21:00,74.9,51.5,30.00,SW,225,2.0,5.0,44,0.00,,,0.00,WeatherCatV1.15B25,2013-07-27 02:21:00,
2013-07-26 19:26:00,74.9,50.2,30.00,WSW,245,4.0,4.0,42,0.00,,,0.00,WeatherCatV1.15B25,2013-07-27 02:26:00,
2013-07-26 19:31:00,74.8,50.2,30.00,NNW,329,2.0,6.0,42,0.00,,,0.00,WeatherCatV1.15B25,2013-07-27 02:31:00,
2013-07-26 19:36:00,75.0,50.3,30.00,NW,321,1.0,5.0,42,0.00,,,0.00,WeatherCatV1.15B25,2013-07-27 02:36:00,
2013-07-26 19:41:00,75.0,49.7,30.00,SW,229,2.0,5.0,41,0.00,,,0.00,WeatherCatV1.15B25,2013-07-27 02:41:00,
2013-07-26 19:46:00,75.1,47.0,30.00,NW,314,5.0,6.0,37,0.00,,,0.00,WeatherCatV1.15B25,2013-07-27 02:46:00,
2013-07-26 19:51:00,75.4,43.5,30.00,WSW,252,3.0,6.0,32,0.00,,,0.00,WeatherCatV1.15B25,2013-07-27 02:51:00,
2013-07-26 19:56:00,75.4,43.5,30.00,West,270,3.0,11.0,32,0.00,,,0.00,WeatherCatV1.15B25,2013-07-27 02:56:00,
2013-07-26 20:01:00,75.3,41.7,30.00,NW,315,8.0,13.0,30,0.00,,,0.00,WeatherCatV1.15B25,2013-07-27 03:01:00,
2013-07-26 20:06:00,75.2,42.5,30.00,WNW,297,2.0,6.0,31,0.00,,,0.00,WeatherCatV1.15B25,2013-07-27 03:06:00,
2013-07-26 20:11:00,74.9,42.2,30.00,WNW,287,2.0,8.0,31,0.00,,,0.00,WeatherCatV1.15B25,2013-07-27 03:11:00,
2013-07-26 20:16:00,74.7,41.2,30.00,NW,315,2.0,6.0,30,0.00,,,0.00,WeatherCatV1.15B25,2013-07-27 03:16:00,
2013-07-26 20:21:00,74.3,40.8,30.00,North,0,1.0,7.0,30,0.00,,,0.00,WeatherCatV1.15B25,2013-07-27 03:21:00,
2013-07-26 20:26:00,73.7,40.3,29.99,NNW,340,3.0,10.0,30,0.00,,,0.00,WeatherCatV1.15B25,2013-07-27 03:26:00,
2013-07-26 20:31:00,73.3,40.8,29.99,WSW,240,2.0,7.0,31,0.00,,,0.00,WeatherCatV1.15B25,2013-07-27 03:31:00,
2013-07-26 20:36:00,72.9,40.5,29.99,NW,320,6.0,8.0,31,0.00,,,0.00,WeatherCatV1.15B25,2013-07-27 03:36:00,
2013-07-26 20:41:00,72.6,41.8,29.99,WNW,288,5.0,11.0,33,0.00,,,0.00,WeatherCatV1.15B25,2013-07-27 03:41:00,
2013-07-26 20:46:00,72.3,42.3,29.99,WNW,294,8.0,10.0,34,0.00,,,0.00,WeatherCatV1.15B25,2013-07-27 03:46:00,
2013-07-26 20:51:00,72.1,42.9,29.99,WNW,297,2.0,7.0,35,0.00,,,0.00,WeatherCatV1.15B25,2013-07-27 03:51:00,
2013-07-26 20:56:00,71.9,42.8,29.99,WNW,302,4.0,8.0,35,0.00,,,0.00,WeatherCatV1.15B25,2013-07-27 03:56:00,
2013-07-26 21:01:00,71.7,42.6,30.00,WNW,301,4.0,8.0,35,0.00,,,0.00,WeatherCatV1.15B25,2013-07-27 04:01:00,
2013-07-26 21:06:00,71.5,42.4,30.00,NW,322,7.0,8.0,35,0.00,,,0.00,WeatherCatV1.15B25,2013-07-27 04:06:00,
2013-07-26 21:11:00,71.4,42.3,30.00,WNW,287,3.0,8.0,35,0.00,,,0.00,WeatherCatV1.15B25,2013-07-27 04:11:00,
2013-07-26 21:16:00,71.1,42.8,30.00,NW,315,6.0,11.0,36,0.00,,,0.00,WeatherCatV1.15B25,2013-07-27 04:16:00,
2013-07-26 21:21:00,70.9,43.3,30.00,WNW,302,1.0,3.0,37,0.00,,,0.00,WeatherCatV1.15B25,2013-07-27 04:21:00,
2013-07-26 21:26:00,70.7,43.8,30.00,NNW,342,1.0,3.0,38,0.00,,,0.00,WeatherCatV1.15B25,2013-07-27 04:26:00,
2013-07-26 21:31:00,70.4,44.2,30.00,West,270,1.0,3.0,39,0.00,,,0.00,WeatherCatV1.15B25,2013-07-27 04:31:00,
2013-07-26 21:36:00,70.1,44.6,30.00,NNE,12,0.0,0.0,40,0.00,,,0.00,WeatherCatV1.15B25,2013-07-27 04:36:00,
2013-07-26 21:41:00,69.8,45.0,30.00,SW,217,2.0,6.0,41,0.00,,,0.00,WeatherCatV1.15B25,2013-07-27 04:41:00,
2013-07-26 21:42:00,69.8,45.0,30.00,NNW,335,3.0,6.0,41,0.00,,,0.00,WeatherCatV1.15B25,2013-07-27 04:42:00,
2013-07-26 21:47:00,69.6,45.5,30.00,NW,318,2.0,7.0,42,0.00,,,0.00,WeatherCatV1.15B25,2013-07-27 04:47:00,
2013-07-26 21:52:00,69.6,45.5,30.00,WNW,300,4.0,9.0,42,0.00,,,0.00,WeatherCatV1.15B25,2013-07-27 04:52:00,
2013-07-26 21:57:00,69.6,46.1,30.00,NW,304,7.0,13.0,43,0.00,,,0.00,WeatherCatV1.15B25,2013-07-27 04:57:00,
2013-07-26 22:02:00,69.6,46.1,30.00,WNW,300,6.0,15.0,43,0.00,,,0.00,WeatherCatV1.15B25,2013-07-27 05:02:00,
2013-07-26 22:07:00,69.6,46.1,30.00,West,276,3.0,6.0,43,0.00,,,0.00,WeatherCatV1.15B25,2013-07-27 05:07:00,
2013-07-26 22:12:00,69.5,46.0,30.00,WNW,290,8.0,12.0,43,0.00,,,0.00,WeatherCatV1.15B25,2013-07-27 05:12:00,
2013-07-26 22:17:00,69.3,46.4,30.01,NW,310,5.0,7.0,44,0.00,,,0.00,WeatherCatV1.15B25,2013-07-27 05:17:00,
2013-07-26 22:22:00,69.2,46.9,30.01,NW,311,5.0,13.0,45,0.00,,,0.00,WeatherCatV1.15B25,2013-07-27 05:22:00,
2013-07-26 22:27:00,69.2,47.5,30.01,WNW,297,9.0,11.0,46,0.00,,,0.00,WeatherCatV1.15B25,2013-07-27 05:27:00,
2013-07-26 22:32:00,68.9,48.4,30.00,WNW,287,9.0,20.0,48,0.00,,,0.00,WeatherCatV1.15B25,2013-07-27 05:32:00,
2013-07-26 22:37:00,68.6,48.7,30.00,NW,318,7.0,15.0,49,0.00,,,0.00,WeatherCatV1.15B25,2013-07-27 05:37:00,
2013-07-26 22:42:00,68.3,48.4,30.00,NW,307,10.0,11.0,49,0.00,,,0.00,WeatherCatV1.15B25,2013-07-27 05:42:00,
2013-07-26 22:47:00,68.1,48.7,30.01,NW,314,4.0,7.0,50,0.00,,,0.00,WeatherCatV1.15B25,2013-07-27 05:47:00,
2013-07-26 22:52:00,67.7,48.9,30.00,WNW,302,5.0,9.0,51,0.00,,,0.00,WeatherCatV1.15B25,2013-07-27 05:52:00,
2013-07-26 22:57:00,67.2,49.5,30.01,NW,304,0.0,2.0,53,0.00,,,0.00,WeatherCatV1.15B25,2013-07-27 05:57:00,
2013-07-26 23:02:00,66.8,49.6,30.01,NW,306,3.0,6.0,54,0.00,,,0.00,WeatherCatV1.15B25,2013-07-27 06:02:00,
2013-07-26 23:07:00,66.3,50.1,30.00,WNW,303,6.0,7.0,56,0.00,,,0.00,WeatherCatV1.15B25,2013-07-27 06:07:00,
2013-07-26 23:12:00,66.2,50.0,30.01,NNW,329,3.0,8.0,56,0.00,,,0.00,WeatherCatV1.15B25,2013-07-27 06:12:00,
2013-07-26 23:17:00,66.1,49.9,30.00,NW,312,5.0,7.0,56,0.00,,,0.00,WeatherCatV1.15B25,2013-07-27 06:17:00,
2013-07-26 23:22:00,66.0,49.8,30.01,WNW,285,4.0,5.0,56,0.00,,,0.00,WeatherCatV1.15B25,2013-07-27 06:22:00,
2013-07-26 23:27:00,65.8,50.1,30.01,NW,315,5.0,5.0,57,0.00,,,0.00,WeatherCatV1.15B25,2013-07-27 06:27:00,
2013-07-26 23:32:00,65.4,50.7,30.01,WNW,302,3.0,5.0,59,0.00,,,0.00,WeatherCatV1.15B25,2013-07-27 06:32:00,
2013-07-26 23:37:00,65.1,50.4,30.01,NW,316,4.0,6.0,59,0.00,,,0.00,WeatherCatV1.15B25,2013-07-27 06:37:00,
2013-07-26 23:42:00,64.9,50.7,30.01,NW,319,4.0,7.0,60,0.00,,,0.00,WeatherCatV1.15B25,2013-07-27 06:42:00,
2013-07-26 23:47:00,64.8,50.1,30.01,NW,314,3.0,6.0,59,0.00,,,0.00,WeatherCatV1.15B25,2013-07-27 06:47:00,
2013-07-26 23:52:00,64.9,49.8,30.01,NNW,328,4.0,5.0,58,0.00,,,0.00,WeatherCatV1.15B25,2013-07-27 06:52:00,
2013-07-26 23:57:00,64.9,49.8,30.01,WNW,300,2.0,5.0,58,0.00,,,0.00,WeatherCatV1.15B25,2013-07-27 06:57:00,